Starlink 31393

operational
NORAD ID: 59252 Int'l Des: 2024-049 Owner: SPXS Country: US Constellation: starlink
LEOCIRCULAR

About Starlink 31393

Description loading...

Live Position

Loading 3D Globe...

Upcoming Passes

Altitude History

Altitude vs Time

uPlot chart will show altitude changes over time

Two-Line Element Set

1 59252U 24049X 26063.32415343 .00000626 00000-0 32275-4 0 9991
2 59252 43.0029 159.2778 0000929 261.3992 98.6754 15.27582891111756
Epoch: Mar 4, 2026 • Age: 24 hours

Current Status

Altitude 483.5 km
Velocity 7.63 km/s
Sub-Earth Point 26.42°N, 30.06°E
Launch Date Mar 16, 2024
Age 1.9 years
Type internet

Technical Details

Classification Payload
Mass 730.00 kg
Dry Mass 700.00 kg
Total Mass 730.00 kg
Length 0.30 m
Diameter 4.10 m
Span 29.00 m
Shape Box + pan
Manufacturer SPXS
Bus Type Starlink V2M
Phase Status In Orbit
Owner/State SPXS/US

Large Constellations

Loading constellations...